| time (UTC) | temp C | wind direction | speed KPH | gust KPH | rain 1hr cm | rain 24hr cm | rain mn cm | humidity % | barometer mb |
| 20260506012328 | 26 | 151 | 9.7 | 22.5 | 0.00 | 0.00 | 0.00 | 83 | 1007.5 |
| 20260506011837 | 26 | 140 | 11.3 | 22.5 | 0.00 | 0.00 | 0.00 | 82 | 1007.4 |
| 20260506011341 | 26 | 177 | 8.0 | 16.1 | 0.00 | 0.00 | 0.00 | 82 | 1007.4 |
| 20260506010825 | 26 | 183 | 6.4 | 17.7 | 0.00 | 0.00 | 0.00 | 82 | 1007.4 |
| 20260506010331 | 26 | 177 | 11.3 | 20.9 | 0.00 | 0.00 | 0.00 | 82 | 1007.2 |
| 20260506005854 | 26 | 134 | 8.0 | 20.9 | 0.00 | 0.00 | 0.00 | 81 | 1007.2 |
| 20260506005339 | 26 | 175 | 4.8 | 17.7 | 0.00 | 0.00 | 0.00 | 81 | 1007.2 |
| 20260506004822 | 26 | 168 | 8.0 | 17.7 | 0.00 | 0.00 | 0.00 | 81 | 1007.1 |
| 20260506004327 | 27 | 154 | 8.0 | 17.7 | 0.00 | 0.00 | 0.00 | 81 | 1007.1 |
| 20260506003831 | 27 | 189 | 8.0 | 17.7 | 0.00 | 0.00 | 0.00 | 80 | 1007.1 |
| 20260506003333 | 27 | 146 | 8.0 | 19.3 | 0.00 | 0.00 | 0.00 | 80 | 1007.1 |
| 20260506002837 | 27 | 149 | 9.7 | 19.3 | 0.00 | 0.00 | 0.00 | 80 | 1007.1 |
| 20260506002321 | 27 | 142 | 4.8 | 16.1 | 0.00 | 0.00 | 0.00 | 80 | 1007.1 |
| 20260506001829 | 27 | 183 | 8.0 | 22.5 | 0.00 | 0.00 | 0.00 | 80 | 1007.0 |
| 20260506001337 | 27 | 182 | 12.9 | 22.5 | 0.00 | 0.00 | 0.00 | 79 | 1007.0 |
| 20260506000829 | 27 | 200 | 11.3 | 19.3 | 0.00 | 0.00 | 0.00 | 79 | 1007.0 |
| 20260506000337 | 27 | 186 | 9.7 | 19.3 | 0.00 | 0.00 | 0.00 | 78 | 1007.0 |
| 20260505235900 | 27 | 195 | 8.0 | 25.7 | 0.00 | 0.00 | 0.00 | 78 | 1007.0 |
| 20260505235343 | 27 | 179 | 9.7 | 25.7 | 0.00 | 0.00 | 0.00 | 78 | 1007.0 |
| 20260505234829 | 27 | 168 | 9.7 | 19.3 | 0.00 | 0.00 | 0.00 | 78 | 1007.0 |
| 20260505234334 | 27 | 159 | 11.3 | 30.6 | 0.00 | 0.00 | 0.00 | 78 | 1007.0 |
| 20260505233839 | 27 | 164 | 12.9 | 30.6 | 0.00 | 0.00 | 0.00 | 77 | 1007.0 |
| 20260505233323 | 27 | 138 | 11.3 | 19.3 | 0.00 | 0.00 | 0.00 | 78 | 1007.0 |
| 20260505232827 | 27 | 179 | 6.4 | 19.3 | 0.00 | 0.00 | 0.00 | 78 | 1007.0 |
| 20260505232331 | 27 | 198 | 9.7 | 17.7 | 0.00 | 0.00 | 0.00 | 78 | 1007.0 |
| 20260505231836 | 27 | 210 | 6.4 | 19.3 | 0.00 | 0.00 | 0.00 | 78 | 1007.0 |
| 20260505231325 | 27 | 175 | 9.7 | 20.9 | 0.00 | 0.00 | 0.00 | 77 | 1007.0 |
| 20260505230833 | 27 | 195 | 11.3 | 20.9 | 0.00 | 0.00 | 0.00 | 77 | 1007.0 |
| 20260505230337 | 28 | 200 | 11.3 | 25.7 | 0.00 | 0.00 | 0.00 | 77 | 1007.1 |
| 20260505225840 | 28 | 189 | 12.9 | 25.7 | 0.00 | 0.00 | 0.00 | 77 | 1007.1 |
| 20260505225324 | 28 | 138 | 4.8 | 17.7 | 0.00 | 0.00 | 0.00 | 77 | 1007.1 |
| 20260505224828 | 28 | 180 | 9.7 | 19.3 | 0.00 | 0.00 | 0.00 | 77 | 1007.0 |
| 20260505224333 | 28 | 255 | 8.0 | 24.1 | 0.00 | 0.00 | 0.00 | 77 | 1007.0 |
| 20260505223838 | 28 | 149 | 9.7 | 27.4 | 0.00 | 0.00 | 0.00 | 77 | 1007.0 |
| 20260505223325 | 28 | 160 | 9.7 | 27.4 | 0.00 | 0.00 | 0.00 | 77 | 1007.1 |
| 20260505222832 | 28 | 144 | 8.0 | 27.4 | 0.00 | 0.00 | 0.00 | 77 | 1007.1 |
| 20260505222335 | 28 | 231 | 8.0 | 27.4 | 0.00 | 0.00 | 0.00 | 76 | 1007.1 |
| 20260505221840 | 28 | 132 | 9.7 | 19.3 | 0.00 | 0.00 | 0.00 | 76 | 1007.1 |
| 20260505221323 | 28 | 158 | 11.3 | 19.3 | 0.00 | 0.00 | 0.00 | 76 | 1007.1 |
| 20260505220835 | 28 | 175 | 9.7 | 22.5 | 0.00 | 0.00 | 0.00 | 76 | 1007.1 |
| 20260505220359 | 28 | 175 | 11.3 | 22.5 | 0.00 | 0.00 | 0.00 | 76 | 1007.5 |
| 20260505215841 | 28 | 190 | 11.3 | 22.5 | 0.00 | 0.00 | 0.00 | 76 | 1007.5 |
| 20260505215325 | 28 | 189 | 9.7 | 22.5 | 0.00 | 0.00 | 0.00 | 77 | 1007.5 |
| 20260505214831 | 28 | 229 | 11.3 | 22.5 | 0.00 | 0.00 | 0.00 | 76 | 1007.6 |
| 20260505214336 | 28 | 186 | 12.9 | 22.5 | 0.00 | 0.00 | 0.00 | 76 | 1007.6 |
| 20260505213841 | 28 | 186 | 6.4 | 22.5 | 0.00 | 0.00 | 0.00 | 77 | 1007.6 |
| 20260505213325 | 28 | 172 | 6.4 | 19.3 | 0.00 | 0.00 | 0.00 | 77 | 1007.6 |
| 20260505212829 | 28 | 217 | 9.7 | 20.9 | 0.00 | 0.00 | 0.00 | 76 | 1007.6 |
| 20260505212334 | 28 | 198 | 6.4 | 22.5 | 0.00 | 0.00 | 0.00 | 76 | 1007.6 |
| 20260505211840 | 28 | 201 | 11.3 | 25.7 | 0.00 | 0.00 | 0.00 | 76 | 1007.9 |
| 20260505211346 | 28 | 198 | 12.9 | 25.7 | 0.00 | 0.00 | 0.00 | 76 | 1007.9 |
| 20260505210834 | 28 | 170 | 9.7 | 22.5 | 0.00 | 0.00 | 0.00 | 76 | 1007.9 |
| 20260505210323 | 28 | 144 | 12.9 | 19.3 | 0.00 | 0.00 | 0.00 | 76 | 1008.0 |
| 20260505205831 | 28 | 203 | 6.4 | 19.3 | 0.00 | 0.00 | 0.00 | 76 | 1008.0 |
| 20260505205334 | 28 | 220 | 6.4 | 20.9 | 0.00 | 0.00 | 0.00 | 77 | 1008.0 |
| 20260505204821 | 28 | 170 | 12.9 | 20.9 | 0.00 | 0.00 | 0.00 | 76 | 1008.1 |
| 20260505204329 | 28 | 120 | 8.0 | 19.3 | 0.00 | 0.00 | 0.00 | 76 | 1008.1 |
| 20260505203836 | 28 | 205 | 14.5 | 19.3 | 0.00 | 0.00 | 0.00 | 75 | 1008.1 |
| 20260505203343 | 29 | 190 | 9.7 | 19.3 | 0.00 | 0.00 | 0.00 | 74 | 1008.5 |
| 20260505202830 | 29 | 168 | 6.4 | 19.3 | 0.00 | 0.00 | 0.00 | 75 | 1008.5 |
| 20260505202338 | 29 | 175 | 11.3 | 19.3 | 0.00 | 0.00 | 0.00 | 74 | 1008.5 |
| 20260505201826 | 28 | 214 | 6.4 | 16.1 | 0.00 | 0.00 | 0.00 | 76 | 1008.7 |
| 20260505201334 | 28 | 195 | 9.7 | 19.3 | 0.00 | 0.00 | 0.00 | 75 | 1008.7 |
| 20260505200825 | 28 | 194 | 11.3 | 19.3 | 0.00 | 0.00 | 0.00 | 75 | 1008.7 |
| 20260505200330 | 28 | 198 | 6.4 | 20.9 | 0.00 | 0.00 | 0.00 | 75 | 1008.9 |
| 20260505195853 | 28 | 192 | 4.8 | 20.9 | 0.00 | 0.00 | 0.00 | 76 | 1008.9 |
| 20260505195336 | 28 | 215 | 11.3 | 20.9 | 0.00 | 0.00 | 0.00 | 75 | 1008.9 |
| 20260505194822 | 28 | 159 | 8.0 | 20.9 | 0.00 | 0.00 | 0.00 | 75 | 1009.1 |
| 20260505194327 | 28 | 170 | 12.9 | 19.3 | 0.00 | 0.00 | 0.00 | 76 | 1009.1 |
| 20260505193852 | 28 | 189 | 9.7 | 19.3 | 0.00 | 0.00 | 0.00 | 77 | 1009.1 |
| 20260505193336 | 28 | 175 | 9.7 | 19.3 | 0.00 | 0.00 | 0.00 | 77 | 1009.1 |
| 20260505192900 | 28 | 207 | 8.0 | 19.3 | 0.00 | 0.00 | 0.00 | 77 | 1009.1 |
| 20260505192403 | 28 | 154 | 8.0 | 19.3 | 0.00 | 0.00 | 0.00 | 77 | 1009.1 |
| 20260505191827 | 28 | 161 | 6.4 | 19.3 | 0.00 | 0.00 | 0.00 | 78 | 1009.1 |
| 20260505191334 | 28 | 127 | 8.0 | 17.7 | 0.00 | 0.00 | 0.00 | 77 | 1009.1 |
| 20260505190837 | 28 | 201 | 9.7 | 25.7 | 0.00 | 0.00 | 0.00 | 76 | 1009.1 |
| 20260505190322 | 28 | 175 | 8.0 | 25.7 | 0.00 | 0.00 | 0.00 | 74 | 1009.2 |
| 20260505185824 | 28 | 180 | 9.7 | 17.7 | 0.00 | 0.00 | 0.00 | 74 | 1009.2 |
| 20260505185330 | 28 | 260 | 9.7 | 25.7 | 0.00 | 0.00 | 0.00 | 76 | 1009.2 |
| 20260505184854 | 28 | 200 | 14.5 | 25.7 | 0.00 | 0.00 | 0.00 | 76 | 1009.4 |
| 20260505184340 | 28 | 215 | 9.7 | 22.5 | 0.00 | 0.00 | 0.00 | 76 | 1009.4 |
| 20260505183824 | 27 | 218 | 9.7 | 24.1 | 0.00 | 0.00 | 0.00 | 77 | 1009.4 |
| 20260505183330 | 27 | 171 | 6.4 | 24.1 | 0.00 | 0.00 | 0.00 | 78 | 1009.5 |
| 20260505182836 | 27 | 127 | 9.7 | 22.5 | 0.00 | 0.00 | 0.00 | 78 | 1009.5 |
| 20260505182340 | 27 | 200 | 8.0 | 22.5 | 0.00 | 0.00 | 0.00 | 79 | 1009.5 |
| 20260505181826 | 27 | 176 | 11.3 | 25.7 | 0.00 | 0.00 | 0.00 | 78 | 1009.6 |
| 20260505181331 | 27 | 184 | 11.3 | 25.7 | 0.00 | 0.00 | 0.00 | 79 | 1009.6 |
| 20260505180836 | 27 | 137 | 6.4 | 27.4 | 0.00 | 0.00 | 0.00 | 80 | 1009.6 |
| 20260505180401 | 27 | 156 | 14.5 | 27.4 | 0.00 | 0.00 | 0.00 | 80 | 1009.7 |
| 20260505175824 | 26 | 191 | 9.7 | 19.3 | 0.00 | 0.00 | 0.00 | 82 | 1009.7 |
| 20260505175348 | 26 | 144 | 8.0 | 19.3 | 0.00 | 0.00 | 0.00 | 81 | 1009.7 |
| 20260505174856 | 27 | 184 | 11.3 | 19.3 | 0.00 | 0.00 | 0.00 | 80 | 1009.8 |
| 20260505174344 | 27 | 189 | 6.4 | 16.1 | 0.00 | 0.00 | 0.00 | 80 | 1009.8 |
| 20260505173827 | 27 | 208 | 4.8 | 19.3 | 0.00 | 0.00 | 0.00 | 80 | 1009.8 |
| 20260505173331 | 26 | 170 | 8.0 | 19.3 | 0.00 | 0.00 | 0.00 | 80 | 1009.9 |
| 20260505172835 | 26 | 192 | 8.0 | 17.7 | 0.00 | 0.00 | 0.00 | 81 | 1009.9 |
| 20260505172401 | 26 | 206 | 6.4 | 16.1 | 0.00 | 0.00 | 0.00 | 81 | 1009.9 |
| 20260505171825 | 26 | 250 | 8.0 | 16.1 | 0.00 | 0.00 | 0.00 | 81 | 1010.1 |
| 20260505171330 | 26 | 168 | 9.7 | 19.3 | 0.00 | 0.00 | 0.00 | 81 | 1010.1 |
| 20260505170837 | 26 | 111 | 9.7 | 19.3 | 0.00 | 0.00 | 0.00 | 82 | 1010.1 |
| 20260505170325 | 26 | 169 | 12.9 | 19.3 | 0.00 | 0.00 | 0.00 | 82 | 1010.2 |
| 20260505165829 | 26 | 189 | 9.7 | 17.7 | 0.00 | 0.00 | 0.00 | 84 | 1010.2 |
| 20260505165335 | 25 | 177 | 4.8 | 17.7 | 0.00 | 0.00 | 0.00 | 86 | 1010.2 |
| 20260505164841 | 25 | 174 | 4.8 | 19.3 | 0.00 | 0.00 | 0.00 | 88 | 1010.1 |
| 20260505164330 | 25 | 196 | 8.0 | 14.5 | 0.00 | 0.00 | 0.00 | 87 | 1010.1 |
| 20260505163854 | 25 | 166 | 8.0 | 16.1 | 0.00 | 0.00 | 0.00 | 87 | 1010.1 |
| 20260505163336 | 25 | 148 | 9.7 | 16.1 | 0.00 | 0.00 | 0.00 | 85 | 1009.9 |
| 20260505162841 | 26 | 199 | 6.4 | 17.7 | 0.00 | 0.00 | 0.00 | 85 | 1009.9 |
| 20260505162325 | 26 | 174 | 8.0 | 19.3 | 0.00 | 0.00 | 0.00 | 85 | 1009.9 |
| 20260505161832 | 25 | 217 | 4.8 | 19.3 | 0.00 | 0.00 | 0.00 | 85 | 1009.9 |
| 20260505161337 | 25 | 194 | 9.7 | 17.7 | 0.00 | 0.00 | 0.00 | 85 | 1009.9 |
| 20260505160901 | 25 | 168 | 8.0 | 20.9 | 0.00 | 0.00 | 0.00 | 85 | 1009.9 |
| 20260505160324 | 25 | 180 | 4.8 | 20.9 | 0.00 | 0.00 | 0.00 | 85 | 1009.8 |
| 20260505153336 | 25 | 153 | 9.7 | 22.5 | 0.00 | 0.00 | 0.00 | 87 | 1009.6 |
| 20260505152822 | 25 | 146 | 6.4 | 20.9 | 0.00 | 0.00 | 0.00 | 87 | 1009.6 |
| 20260505152348 | 25 | 170 | 12.9 | 20.9 | 0.00 | 0.00 | 0.00 | 87 | 1009.6 |
| 20260505151851 | 25 | 189 | 8.0 | 20.9 | 0.00 | 0.00 | 0.00 | 87 | 1009.6 |
| 20260505151354 | 25 | 168 | 8.0 | 22.5 | 0.00 | 0.00 | 0.00 | 87 | 1009.6 |
| 20260505150837 | 25 | 182 | 9.7 | 22.5 | 0.00 | 0.00 | 0.00 | 87 | 1009.6 |
| 20260505150324 | 25 | 131 | 11.3 | 17.7 | 0.00 | 0.00 | 0.00 | 86 | 1009.6 |
| 20260505140333 | 24 | 203 | 9.7 | 24.1 | 0.00 | 0.00 | 0.00 | 88 | 1009.6 |
| 20260505124837 | 22 | 186 | 9.7 | 17.7 | 0.00 | 0.00 | 0.00 | 91 | 1009.1 |
| 20260505124323 | 22 | 186 | 6.4 | 16.1 | 0.00 | 0.00 | 0.00 | 91 | 1009.1 |
| 20260505123829 | 22 | 161 | 6.4 | 11.3 | 0.00 | 0.00 | 0.00 | 92 | 1009.1 |
| 20260505123334 | 22 | 153 | 4.8 | 11.3 | 0.00 | 0.00 | 0.00 | 92 | 1009.1 |
| 20260505122900 | 22 | 153 | 6.4 | 14.5 | 0.00 | 0.00 | 0.00 | 92 | 1009.1 |
| 20260505122323 | 22 | 149 | 6.4 | 14.5 | 0.00 | 0.00 | 0.00 | 92 | 1009.1 |
| 20260505121850 | 22 | 161 | 3.2 | 9.7 | 0.00 | 0.00 | 0.00 | 92 | 1008.8 |
| 20260505121333 | 22 | 174 | 6.4 | 11.3 | 0.00 | 0.00 | 0.00 | 92 | 1008.8 |
| 20260505120901 | 22 | 179 | 4.8 | 17.7 | 0.00 | 0.00 | 0.00 | 92 | 1008.8 |
| 20260505120326 | 22 | 154 | 6.4 | 17.7 | 0.00 | 0.00 | 0.00 | 92 | 1008.6 |
| 20260505115853 | 22 | 183 | 9.7 | 16.1 | 0.00 | 0.00 | 0.00 | 92 | 1008.6 |
| 20260505115341 | 22 | 184 | 4.8 | 9.7 | 0.00 | 0.00 | 0.00 | 92 | 1008.6 |
| 20260505114825 | 22 | 149 | 4.8 | 11.3 | 0.00 | 0.00 | 0.00 | 92 | 1009.0 |
| 20260505114331 | 22 | 140 | 4.8 | 11.3 | 0.00 | 0.00 | 0.00 | 92 | 1009.0 |
| 20260505113857 | 22 | 172 | 4.8 | 8.0 | 0.00 | 0.00 | 0.00 | 92 | 1009.0 |
| 20260505113455 | 22 | 156 | 6.4 | 8.0 | 0.00 | 0.00 | 0.00 | 92 | 1009.0 |
| 20260505112845 | 22 | 175 | 4.8 | 8.0 | 0.00 | 0.00 | 0.00 | 92 | 1008.9 |
| 20260505112353 | 21 | 175 | 3.2 | 8.0 | 0.00 | 0.00 | 0.00 | 92 | 1008.9 |
| 20260505111836 | 21 | 184 | 4.8 | 8.0 | 0.00 | 0.00 | 0.00 | 92 | 1008.7 |
| 20260505111322 | 21 | 127 | 3.2 | 8.0 | 0.00 | 0.00 | 0.00 | 92 | 1008.7 |
| 20260505110827 | 21 | 177 | 3.2 | 9.7 | 0.00 | 0.00 | 0.00 | 92 | 1008.7 |
| 20260505110352 | 21 | 182 | 6.4 | 11.3 | 0.00 | 0.00 | 0.00 | 92 | 1008.6 |
| 20260505101840 | 21 | 165 | 3.2 | 8.0 | 0.00 | 0.00 | 0.00 | 92 | 1008.9 |
| 20260505101345 | 21 | 179 | 3.2 | 8.0 | 0.00 | 0.00 | 0.00 | 92 | 1008.9 |
| 20260505100832 | 21 | 179 | 3.2 | 8.0 | 0.00 | 0.00 | 0.00 | 91 | 1008.9 |
| 20260505100337 | 21 | 161 | 3.2 | 8.0 | 0.00 | 0.00 | 0.00 | 91 | 1009.1 |
| 20260505095902 | 21 | 165 | 4.8 | 9.7 | 0.00 | 0.00 | 0.00 | 91 | 1009.1 |
| 20260505095324 | 21 | 163 | 6.4 | 9.7 | 0.00 | 0.00 | 0.00 | 91 | 1009.1 |
| 20260505094827 | 21 | 190 | 3.2 | 9.7 | 0.00 | 0.00 | 0.00 | 91 | 1008.9 |
| 20260505094351 | 21 | 123 | 3.2 | 11.3 | 0.00 | 0.00 | 0.00 | 91 | 1008.9 |
| 20260505093836 | 21 | 153 | 4.8 | 11.3 | 0.00 | 0.00 | 0.00 | 91 | 1008.9 |
| 20260505093321 | 21 | 189 | 4.8 | 11.3 | 0.00 | 0.00 | 0.00 | 91 | 1009.1 |
| 20260505092849 | 21 | 168 | 4.8 | 14.5 | 0.00 | 0.00 | 0.00 | 91 | 1009.1 |
| 20260505092338 | 21 | 177 | 8.0 | 14.5 | 0.00 | 0.00 | 0.00 | 91 | 1009.1 |
| 20260505091824 | 21 | 170 | 4.8 | 9.7 | 0.00 | 0.00 | 0.00 | 90 | 1009.1 |
| 20260505091329 | 21 | 151 | 4.8 | 11.3 | 0.00 | 0.00 | 0.00 | 90 | 1009.1 |
| 20260505090834 | 21 | 191 | 6.4 | 11.3 | 0.00 | 0.00 | 0.00 | 90 | 1009.1 |
| 20260505090322 | 21 | 178 | 4.8 | 6.4 | 0.00 | 0.00 | 0.00 | 90 | 1009.1 |
| 20260505085823 | 21 | 174 | 3.2 | 8.0 | 0.00 | 0.00 | 0.00 | 90 | 1009.1 |
| 20260505085328 | 21 | 132 | 4.8 | 9.7 | 0.00 | 0.00 | 0.00 | 90 | 1009.1 |
| 20260505084835 | 21 | 186 | 4.8 | 9.7 | 0.00 | 0.00 | 0.00 | 90 | 1009.1 |
| 20260505084341 | 21 | 176 | 4.8 | 8.0 | 0.00 | 0.00 | 0.00 | 90 | 1009.1 |
| 20260505083823 | 21 | 184 | 3.2 | 8.0 | 0.00 | 0.00 | 0.00 | 90 | 1009.1 |
| 20260505083327 | 21 | 160 | 3.2 | 6.4 | 0.00 | 0.00 | 0.00 | 90 | 1009.5 |
| 20260505082834 | 21 | 175 | 3.2 | 8.0 | 0.00 | 0.00 | 0.00 | 89 | 1009.5 |
| 20260505082341 | 21 | 198 | 1.6 | 9.7 | 0.00 | 0.00 | 0.00 | 89 | 1009.5 |
| 20260505081830 | 21 | 190 | 4.8 | 11.3 | 0.00 | 0.00 | 0.00 | 89 | 1009.6 |
| 20260505081356 | 21 | 183 | 4.8 | 16.1 | 0.00 | 0.00 | 0.00 | 89 | 1009.6 |
| 20260505080821 | 21 | 175 | 4.8 | 16.1 | 0.00 | 0.00 | 0.00 | 89 | 1009.6 |
| 20260505080328 | 21 | 190 | 4.8 | 11.3 | 0.00 | 0.00 | 0.00 | 89 | 1009.7 |
| 20260505075833 | 21 | 175 | 6.4 | 11.3 | 0.00 | 0.00 | 0.00 | 89 | 1009.7 |
| 20260505075358 | 21 | 189 | 4.8 | 9.7 | 0.00 | 0.00 | 0.00 | 88 | 1009.7 |
| 20260505074822 | 22 | 178 | 4.8 | 11.3 | 0.00 | 0.00 | 0.00 | 88 | 1009.7 |
| 20260505074328 | 22 | 182 | 3.2 | 11.3 | 0.00 | 0.00 | 0.00 | 88 | 1009.7 |
| 20260505073836 | 22 | 172 | 6.4 | 14.5 | 0.00 | 0.00 | 0.00 | 88 | 1009.7 |
| 20260505073321 | 22 | 138 | 6.4 | 14.5 | 0.00 | 0.00 | 0.00 | 88 | 1009.7 |
| 20260505072828 | 22 | 190 | 4.8 | 9.7 | 0.00 | 0.00 | 0.00 | 88 | 1009.7 |
| 20260505072334 | 22 | 193 | 4.8 | 9.7 | 0.00 | 0.00 | 0.00 | 87 | 1009.7 |
| 20260505071823 | 22 | 188 | 4.8 | 14.5 | 0.00 | 0.00 | 0.00 | 87 | 1010.1 |
| 20260505071331 | 22 | 179 | 4.8 | 12.9 | 0.00 | 0.00 | 0.00 | 87 | 1010.1 |
| 20260505070836 | 22 | 184 | 4.8 | 14.5 | 0.00 | 0.00 | 0.00 | 87 | 1010.1 |
| 20260505070402 | 22 | 125 | 8.0 | 14.5 | 0.00 | 0.00 | 0.00 | 87 | 1010.1 |
| 20260505065824 | 22 | 150 | 3.2 | 14.5 | 0.00 | 0.00 | 0.00 | 87 | 1010.1 |
| 20260505065329 | 22 | 151 | 6.4 | 14.5 | 0.00 | 0.00 | 0.00 | 87 | 1010.1 |
| 20260505064834 | 21 | 182 | 6.4 | 14.5 | 0.00 | 0.00 | 0.00 | 87 | 1010.2 |
| 20260505064339 | 21 | 191 | 6.4 | 14.5 | 0.00 | 0.00 | 0.00 | 86 | 1010.2 |
| 20260505063823 | 21 | 198 | 8.0 | 14.5 | 0.00 | 0.00 | 0.00 | 86 | 1010.2 |
| 20260505063328 | 21 | 194 | 6.4 | 11.3 | 0.00 | 0.00 | 0.00 | 86 | 1010.5 |
| 20260505062835 | 21 | 175 | 8.0 | 11.3 | 0.00 | 0.00 | 0.00 | 86 | 1010.5 |
| 20260505062338 | 21 | 158 | 6.4 | 11.3 | 0.00 | 0.00 | 0.00 | 86 | 1010.5 |
| 20260505061824 | 21 | 187 | 6.4 | 11.3 | 0.00 | 0.00 | 0.00 | 86 | 1010.7 |
| 20260505061329 | 21 | 155 | 4.8 | 11.3 | 0.00 | 0.00 | 0.00 | 85 | 1010.7 |
| 20260505060834 | 22 | 162 | 6.4 | 11.3 | 0.00 | 0.00 | 0.00 | 85 | 1010.7 |
| 20260505060323 | 22 | 160 | 4.8 | 11.3 | 0.00 | 0.00 | 0.00 | 85 | 1010.7 |
| 20260505055827 | 22 | 177 | 4.8 | 16.1 | 0.00 | 0.00 | 0.00 | 85 | 1010.7 |
| 20260505055333 | 22 | 185 | 9.7 | 16.1 | 0.00 | 0.00 | 0.00 | 85 | 1010.7 |
| 20260505054859 | 22 | 186 | 6.4 | 17.7 | 0.00 | 0.00 | 0.00 | 85 | 1010.7 |
| 20260505054323 | 22 | 163 | 6.4 | 17.7 | 0.00 | 0.00 | 0.00 | 85 | 1010.7 |
| 20260505053831 | 22 | 160 | 4.8 | 16.1 | 0.00 | 0.00 | 0.00 | 85 | 1010.7 |
| 20260505053336 | 22 | 159 | 6.4 | 11.3 | 0.00 | 0.00 | 0.00 | 84 | 1011.0 |
| 20260505052841 | 22 | 151 | 6.4 | 11.3 | 0.00 | 0.00 | 0.00 | 84 | 1011.0 |
| 20260505052327 | 22 | 184 | 8.0 | 11.3 | 0.00 | 0.00 | 0.00 | 84 | 1011.0 |
| 20260505051832 | 22 | 186 | 4.8 | 9.7 | 0.00 | 0.00 | 0.00 | 84 | 1011.1 |
| 20260505051359 | 22 | 183 | 4.8 | 16.1 | 0.00 | 0.00 | 0.00 | 84 | 1011.1 |
| 20260505050823 | 22 | 185 | 9.7 | 16.1 | 0.00 | 0.00 | 0.00 | 83 | 1011.1 |
| 20260505050337 | 22 | 170 | 8.0 | 14.5 | 0.00 | 0.00 | 0.00 | 83 | 1011.2 |
| 20260505041327 | 22 | 209 | 9.7 | 17.7 | 0.00 | 0.00 | 0.00 | 81 | 1011.0 |
| 20260505040852 | 22 | 148 | 8.0 | 19.3 | 0.00 | 0.00 | 0.00 | 81 | 1011.0 |
| 20260505040341 | 22 | 198 | 8.0 | 24.1 | 0.00 | 0.00 | 0.00 | 81 | 1011.2 |
| 20260505035846 | 22 | 184 | 8.0 | 24.1 | 0.00 | 0.00 | 0.00 | 81 | 1011.2 |
| 20260505035329 | 22 | 176 | 11.3 | 19.3 | 0.00 | 0.00 | 0.00 | 81 | 1011.2 |
| 20260505034857 | 22 | 143 | 8.0 | 20.9 | 0.00 | 0.00 | 0.00 | 80 | 1011.5 |
| 20260505034341 | 22 | 154 | 9.7 | 20.9 | 0.00 | 0.00 | 0.00 | 80 | 1011.5 |
| 20260505033826 | 22 | 165 | 11.3 | 24.1 | 0.00 | 0.00 | 0.00 | 80 | 1011.5 |
| 20260505033352 | 22 | 176 | 12.9 | 24.1 | 0.00 | 0.00 | 0.00 | 80 | 1011.4 |
| 20260505032856 | 22 | 193 | 8.0 | 24.1 | 0.00 | 0.00 | 0.00 | 80 | 1011.4 |
| 20260505032341 | 22 | 180 | 11.3 | 24.1 | 0.00 | 0.00 | 0.00 | 79 | 1011.4 |
| 20260505031825 | 23 | 173 | 8.0 | 19.3 | 0.00 | 0.00 | 0.00 | 79 | 1011.2 |
| 20260505031330 | 23 | 188 | 12.9 | 19.3 | 0.00 | 0.00 | 0.00 | 79 | 1011.2 |
| 20260505030837 | 23 | 201 | 12.9 | 25.7 | 0.00 | 0.00 | 0.00 | 79 | 1011.2 |
| 20260505030322 | 23 | 201 | 16.1 | 25.7 | 0.00 | 0.00 | 0.00 | 79 | 1011.2 |
| 20260505025826 | 23 | 146 | 11.3 | 27.4 | 0.00 | 0.00 | 0.00 | 78 | 1011.2 |
| 20260505025337 | 23 | 125 | 12.9 | 27.4 | 0.00 | 0.00 | 0.00 | 78 | 1011.2 |
| 20260505024823 | 23 | 132 | 8.0 | 20.9 | 0.00 | 0.00 | 0.00 | 78 | 1011.3 |
| 20260505024328 | 23 | 151 | 11.3 | 20.9 | 0.00 | 0.00 | 0.00 | 78 | 1011.3 |
| 20260505023833 | 23 | 141 | 11.3 | 20.9 | 0.00 | 0.00 | 0.00 | 77 | 1011.3 |
| 20260505023338 | 23 | 153 | 8.0 | 20.9 | 0.00 | 0.00 | 0.00 | 77 | 1011.2 |
| 20260505022824 | 23 | 175 | 8.0 | 25.7 | 0.00 | 0.00 | 0.00 | 77 | 1011.2 |
| 20260505022329 | 23 | 196 | 14.5 | 22.5 | 0.00 | 0.00 | 0.00 | 77 | 1011.2 |
| 20260505021833 | 23 | 159 | 9.7 | 19.3 | 0.00 | 0.00 | 0.00 | 77 | 1011.2 |
| 20260505021338 | 23 | 134 | 9.7 | 19.3 | 0.00 | 0.00 | 0.00 | 76 | 1011.2 |
| 20260505020822 | 23 | 201 | 12.9 | 22.5 | 0.00 | 0.00 | 0.00 | 76 | 1011.2 |
| 20260505020327 | 23 | 191 | 11.3 | 27.4 | 0.00 | 0.00 | 0.00 | 76 | 1011.1 |
| 20260505015835 | 23 | 147 | 12.9 | 27.4 | 0.00 | 0.00 | 0.00 | 76 | 1011.1 |
| 20260505015321 | 23 | 202 | 12.9 | 24.1 | 0.00 | 0.00 | 0.00 | 75 | 1011.1 |
| 20260505014826 | 23 | 208 | 12.9 | 24.1 | 0.00 | 0.00 | 0.00 | 75 | 1010.8 |
| 20260505014334 | 23 | 155 | 6.4 | 19.3 | 0.00 | 0.00 | 0.00 | 75 | 1010.8 |
| 20260505013821 | 23 | 135 | 9.7 | 20.9 | 0.00 | 0.00 | 0.00 | 75 | 1010.8 |
| 20260505013329 | 24 | 200 | 11.3 | 20.9 | 0.00 | 0.00 | 0.00 | 75 | 1010.7 |
| 20260505012855 | 24 | 185 | 8.0 | 20.9 | 0.00 | 0.00 | 0.00 | 74 | 1010.7 |